• En España
  • Lista de países
  • Para 7 días
  • Temperatura del agua
  • Mapa Satelital
  • El tiempo en el mapa
  • Informadores
  • user-avatar
    Iniciar sesión

    Tiempo cada hora Darwin

    Hoy, 18 Agosto, Viernes

    Tiempo Temperatura Precipitaciones Viento Presión Humedad
    00:00 +27°C° 0 mm 1 mps 758 mmHg 82%
    01:00 +27°C° 0 mm 1 mps 758 mmHg 83%
    02:00 +26°C° 0 mm 1 mps 758 mmHg 84%
    03:00 +26°C° 0 mm 1 mps 758 mmHg 86%
    04:00 +26°C° 0 mm 2 mps 758 mmHg 87%
    05:00 +25°C° 0 mm 2 mps 759 mmHg 88%
    06:00 +25°C° 0 mm 2 mps 759 mmHg 89%
    07:00 +27°C° 0 mm 3 mps 759 mmHg 78%
    08:00 +29°C° 0 mm 3 mps 759 mmHg 67%
    09:00 +31°C° 0 mm 3 mps 760 mmHg 58%
    10:00 +34°C° 0 mm 3 mps 759 mmHg 48%
    11:00 +36°C° 0 mm 3 mps 759 mmHg 39%
    12:00 +38°C° 0 mm 4 mps 759 mmHg 30%
    13:00 +40°C° 0 mm 4 mps 758 mmHg 27%
    14:00 +40°C° 0 mm 4 mps 757 mmHg 24%
    15:00 +39°C° 0 mm 3 mps 757 mmHg 24%
    16:00 +37°C° 0 mm 3 mps 757 mmHg 29%
    17:00 +35°C° 0 mm 3 mps 757 mmHg 33%
    18:00 +34°C° 0 mm 3 mps 757 mmHg 38%
    19:00 +31°C° 0 mm 3 mps 758 mmHg 47%
    20:00 +29°C° 0 mm 3 mps 758 mmHg 57%
    21:00 +28°C° 0 mm 2 mps 759 mmHg 67%
    22:00 +27°C° 0 mm 2 mps 759 mmHg 71%
    23:00 +27°C° 0 mm 2 mps 760 mmHg 74%

    Mañana, 19 Agosto, Sábado

    Tiempo Temperatura Precipitaciones Viento Presión Humedad
    00:00 +26°C° 0 mm 2 mps 760 mmHg 78%
    01:00 +26°C° 0 mm 2 mps 760 mmHg 79%
    02:00 +26°C° 0 mm 2 mps 760 mmHg 80%
    03:00 +25°C° 0 mm 2 mps 760 mmHg 81%
    04:00 +25°C° 0 mm 2 mps 760 mmHg 82%
    05:00 +24°C° 0 mm 2 mps 760 mmHg 83%
    06:00 +24°C° 0 mm 2 mps 760 mmHg 84%
    07:00 +26°C° 0 mm 2 mps 760 mmHg 71%
    08:00 +28°C° 0 mm 2 mps 761 mmHg 58%
    09:00 +31°C° 0 mm 2 mps 761 mmHg 45%
    10:00 +34°C° 0 mm 3 mps 760 mmHg 36%
    11:00 +37°C° 0 mm 4 mps 760 mmHg 26%
    12:00 +40°C° 0 mm 4 mps 759 mmHg 17%
    13:00 +40°C° 0 mm 4 mps 759 mmHg 17%
    14:00 +41°C° 0 mm 5 mps 758 mmHg 17%
    15:00 +41°C° 0 mm 5 mps 757 mmHg 18%
    16:00 +38°C° 0 mm 4 mps 757 mmHg 22%
    17:00 +37°C° 0 mm 4 mps 757 mmHg 27%
    18:00 +35°C° 0 mm 3 mps 757 mmHg 32%
    19:00 +33°C° 0 mm 3 mps 758 mmHg 41%
    20:00 +30°C° 0 mm 2 mps 758 mmHg 51%
    21:00 +28°C° 0 mm 2 mps 759 mmHg 61%
    22:00 +28°C° 0 mm 2 mps 759 mmHg 62%
    23:00 +28°C° 0 mm 1 mps 759 mmHg 63%

    Pasado mañana, 20 Agosto, Domingo

    Tiempo Temperatura Precipitaciones Viento Presión Humedad
    00:00 +28°C° 0 mm 1 mps 760 mmHg 64%
    01:00 +27°C° 0 mm 1 mps 760 mmHg 67%
    02:00 +27°C° 0 mm 1 mps 759 mmHg 69%
    03:00 +26°C° 0 mm 1 mps 759 mmHg 71%
    04:00 +25°C° 0 mm 1 mps 759 mmHg 73%
    05:00 +25°C° 0 mm 2 mps 760 mmHg 74%
    06:00 +25°C° 0 mm 2 mps 760 mmHg 75%
    07:00 +27°C° 0 mm 3 mps 760 mmHg 62%
    08:00 +29°C° 0 mm 3 mps 761 mmHg 49%
    09:00 +32°C° 0 mm 4 mps 761 mmHg 36%
    10:00 +34°C° 0 mm 4 mps 760 mmHg 31%
    11:00 +36°C° 0 mm 5 mps 760 mmHg 27%
    12:00 +39°C° 0 mm 5 mps 759 mmHg 22%
    13:00 +39°C° 0 mm 5 mps 759 mmHg 21%
    14:00 +40°C° 0 mm 4 mps 758 mmHg 21%
    15:00 +40°C° 0 mm 4 mps 757 mmHg 20%
    16:00 +38°C° 0 mm 4 mps 757 mmHg 23%
    17:00 +36°C° 0 mm 3 mps 757 mmHg 27%
    18:00 +35°C° 0 mm 3 mps 757 mmHg 30%
    19:00 +33°C° 0 mm 3 mps 758 mmHg 38%
    20:00 +30°C° 0 mm 3 mps 758 mmHg 45%
    21:00 +28°C° 0 mm 2 mps 759 mmHg 52%
    22:00 +27°C° 0 mm 2 mps 759 mmHg 57%
    23:00 +27°C° 0 mm 2 mps 759 mmHg 62%

    21 Agosto, Lunes

    Tiempo Temperatura Precipitaciones Viento Presión Humedad
    00:00 +26°C° 0 mm 2 mps 759 mmHg 66%
    01:00 +26°C° 0 mm 2 mps 759 mmHg 68%
    02:00 +26°C° 0 mm 2 mps 759 mmHg 70%
    03:00 +25°C° 0 mm 2 mps 759 mmHg 72%
    04:00 +25°C° 0 mm 2 mps 759 mmHg 75%
    05:00 +25°C° 0 mm 2 mps 759 mmHg 77%
    06:00 +25°C° 0 mm 3 mps 759 mmHg 79%
    07:00 +26°C° 0 mm 3 mps 759 mmHg 69%
    08:00 +28°C° 0 mm 4 mps 760 mmHg 59%
    09:00 +30°C° 0 mm 4 mps 760 mmHg 49%
    10:00 +33°C° 0 mm 4 mps 760 mmHg 39%
    11:00 +35°C° 0 mm 4 mps 759 mmHg 30%
    12:00 +37°C° 0 mm 5 mps 759 mmHg 21%
    13:00 +39°C° 0 mm 5 mps 758 mmHg 20%
    14:00 +40°C° 0 mm 5 mps 757 mmHg 20%
    15:00 +40°C° 0 mm 5 mps 756 mmHg 19%
    16:00 +37°C° 0 mm 5 mps 756 mmHg 24%
    17:00 +35°C° 0 mm 5 mps 757 mmHg 30%
    18:00 +33°C° 0 mm 4 mps 757 mmHg 35%
    19:00 +32°C° 0 mm 4 mps 757 mmHg 44%
    20:00 +30°C° 0 mm 4 mps 758 mmHg 53%
    21:00 +28°C° 0 mm 4 mps 759 mmHg 62%
    22:00 +28°C° 0 mm 3 mps 759 mmHg 65%
    23:00 +27°C° 0 mm 3 mps 759 mmHg 67%

    22 Agosto, Martes

    Tiempo Temperatura Precipitaciones Viento Presión Humedad
    00:00 +27°C° 0 mm 2 mps 759 mmHg 70%
    01:00 +26°C° 0,1 mm 2 mps 759 mmHg 72%
    02:00 +26°C° 0,1 mm 2 mps 759 mmHg 75%
    03:00 +26°C° 0,1 mm 3 mps 759 mmHg 77%
    04:00 +25°C° 0,1 mm 3 mps 759 mmHg 79%
    05:00 +25°C° 0,1 mm 3 mps 759 mmHg 82%
    06:00 +25°C° 0,1 mm 3 mps 760 mmHg 85%
    07:00 +26°C° 0 mm 4 mps 760 mmHg 72%
    08:00 +28°C° 0 mm 4 mps 760 mmHg 60%
    09:00 +30°C° 0 mm 5 mps 761 mmHg 47%
    10:00 +33°C° 0 mm 5 mps 760 mmHg 38%
    11:00 +35°C° 0 mm 5 mps 760 mmHg 28%
    12:00 +39°C° 0 mm 6 mps 759 mmHg 18%
    13:00 +39°C° 0 mm 6 mps 759 mmHg 19%
    14:00 +39°C° 0 mm 6 mps 758 mmHg 20%
    15:00 +40°C° 0 mm 6 mps 757 mmHg 21%
    16:00 +38°C° 0 mm 6 mps 757 mmHg 27%
    17:00 +35°C° 0 mm 5 mps 758 mmHg 33%
    18:00 +33°C° 0 mm 5 mps 758 mmHg 40%
    19:00 +32°C° 0 mm 5 mps 758 mmHg 48%
    20:00 +30°C° 0 mm 5 mps 759 mmHg 56%
    21:00 +28°C° 0 mm 4 mps 760 mmHg 63%
    22:00 +28°C° 0 mm 4 mps 760 mmHg 67%
    23:00 +27°C° 0 mm 4 mps 760 mmHg 70%

    23 Agosto, Miércoles

    Tiempo Temperatura Precipitaciones Viento Presión Humedad
    00:00 +27°C° 0 mm 4 mps 760 mmHg 73%
    01:00 +26°C° 0 mm 4 mps 760 mmHg 75%
    02:00 +26°C° 0 mm 3 mps 760 mmHg 78%
    03:00 +25°C° 0 mm 3 mps 759 mmHg 80%
    04:00 +25°C° 0 mm 4 mps 760 mmHg 80%
    05:00 +23°C° 0 mm 4 mps 760 mmHg 80%
    06:00 +22°C° 0 mm 4 mps 760 mmHg 80%
    07:00 +26°C° 0 mm 4 mps 760 mmHg 63%
    08:00 +28°C° 0 mm 5 mps 761 mmHg 47%
    09:00 +30°C° 0 mm 6 mps 761 mmHg 31%
    10:00 +33°C° 0 mm 6 mps 760 mmHg 28%
    11:00 +35°C° 0 mm 6 mps 760 mmHg 24%
    12:00 +38°C° 0 mm 7 mps 759 mmHg 21%
    13:00 +39°C° 0 mm 6 mps 759 mmHg 21%
    14:00 +40°C° 0 mm 6 mps 758 mmHg 21%
    15:00 +41°C° 0 mm 6 mps 757 mmHg 21%
    16:00 +39°C° 0 mm 5 mps 757 mmHg 25%
    17:00 +36°C° 0 mm 5 mps 757 mmHg 30%
    18:00 +34°C° 0 mm 5 mps 758 mmHg 34%
    19:00 +33°C° 0 mm 5 mps 758 mmHg 43%
    20:00 +30°C° 0 mm 4 mps 759 mmHg 52%
    21:00 +29°C° 0 mm 4 mps 760 mmHg 60%
    22:00 +28°C° 0 mm 4 mps 760 mmHg 66%
    23:00 +27°C° 0 mm 3 mps 760 mmHg 71%
    Mostrar más